TimeAKDT,TemperatureF,Dew PointF,Humidity,Sea Level PressureIn,VisibilityMPH,Wind Direction,Wind SpeedMPH,Gust SpeedMPH,PrecipitationIn,Events,Conditions,WindDirDegrees,DateUTC
12:30 AM,44.6,42.8,93,30.11,7.0,Calm,Calm,-,N/A,,Overcast,0,2012-10-09 08:30:00
12:43 AM,44.6,42.8,93,30.11,10.0,Calm,Calm,-,N/A,,Overcast,0,2012-10-09 08:43:00
12:53 AM,45.0,43.0,93,30.11,10.0,Calm,Calm,-,N/A,,Overcast,0,2012-10-09 08:53:00
1:15 AM,44.6,42.8,93,30.11,10.0,Calm,Calm,-,N/A,,Overcast,0,2012-10-09 09:15:00
1:53 AM,45.0,43.0,93,30.10,10.0,Calm,Calm,-,N/A,,Overcast,0,2012-10-09 09:53:00
2:00 AM,44.6,42.8,93,30.10,10.0,Calm,Calm,-,N/A,,Overcast,0,2012-10-09 10:00:00
2:17 AM,44.6,42.8,93,30.10,10.0,Calm,Calm,-,N/A,,Overcast,0,2012-10-09 10:17:00
2:53 AM,44.1,43.0,96,30.10,10.0,Calm,Calm,-,N/A,,Overcast,0,2012-10-09 10:53:00
3:01 AM,44.6,42.8,93,30.09,10.0,Calm,Calm,-,N/A,,Overcast,0,2012-10-09 11:01:00
3:38 AM,44.6,42.8,93,30.09,10.0,Calm,Calm,-,N/A,,Overcast,0,2012-10-09 11:38:00
3:53 AM,45.0,43.0,93,30.10,10.0,Calm,Calm,-,N/A,,Overcast,0,2012-10-09 11:53:00
4:53 AM,45.0,43.0,93,30.09,10.0,Calm,Calm,-,N/A,,Overcast,0,2012-10-09 12:53:00
5:53 AM,45.0,42.1,90,30.08,10.0,Calm,Calm,-,N/A,,Overcast,0,2012-10-09 13:53:00
6:53 AM,44.1,39.9,85,30.09,10.0,Calm,Calm,-,N/A,,Overcast,0,2012-10-09 14:53:00
7:53 AM,43.0,39.9,89,30.09,10.0,Calm,Calm,-,N/A,,Overcast,0,2012-10-09 15:53:00
8:53 AM,43.0,39.0,86,30.09,10.0,Calm,Calm,-,N/A,,Overcast,0,2012-10-09 16:53:00
9:53 AM,42.1,39.0,89,30.09,10.0,Calm,Calm,-,N/A,,Overcast,0,2012-10-09 17:53:00
10:53 AM,42.1,39.0,89,30.10,10.0,Calm,Calm,-,N/A,,Overcast,0,2012-10-09 18:53:00
11:53 AM,42.1,39.9,92,30.09,10.0,SW,3.5,-,N/A,,Mostly Cloudy,230,2012-10-09 19:53:00
12:26 PM,44.6,41.0,87,30.08,10.0,SSW,4.6,-,N/A,,Scattered Clouds,210,2012-10-09 20:26:00
12:53 PM,43.0,39.9,89,30.08,10.0,SW,3.5,-,N/A,,Partly Cloudy,220,2012-10-09 20:53:00
1:53 PM,45.0,41.0,86,30.06,10.0,SW,6.9,-,N/A,,Clear,220,2012-10-09 21:53:00
2:53 PM,45.0,42.1,90,30.06,10.0,SSW,8.1,-,N/A,,Partly Cloudy,210,2012-10-09 22:53:00
3:53 PM,46.0,42.1,86,30.06,10.0,SSW,9.2,-,N/A,,Overcast,210,2012-10-09 23:53:00
4:53 PM,45.0,42.1,90,30.06,10.0,SW,5.8,-,N/A,,Overcast,220,2012-10-10 00:53:00
5:53 PM,44.1,42.1,93,30.06,10.0,SSW,5.8,-,N/A,,Mostly Cloudy,210,2012-10-10 01:53:00
6:53 PM,44.1,42.1,93,30.09,10.0,SW,3.5,-,N/A,,Mostly Cloudy,230,2012-10-10 02:53:00
7:53 PM,44.1,42.1,93,30.09,10.0,Calm,Calm,-,N/A,,Overcast,0,2012-10-10 03:53:00
8:53 PM,44.1,41.0,89,30.10,10.0,Calm,Calm,-,N/A,,Overcast,0,2012-10-10 04:53:00
9:53 PM,44.1,42.1,93,30.10,10.0,SW,3.5,-,N/A,,Overcast,220,2012-10-10 05:53:00
10:53 PM,55.0,33.1,43,30.11,10.0,North,11.5,21.9,N/A,,Overcast,10,2012-10-10 06:53:00
11:53 PM,55.0,32.0,42,30.12,10.0,NNE,12.7,23.0,N/A,,Overcast,20,2012-10-10 07:53:00